Location: PSU-Greenbush Astrophysical Observatory
(37.5140°N, 94.9880°W)
Time: 22:21:55
(UTC-06:00)

Altair - Pass Details

Date: 28 January 2020
Orbit: 1502 x 1682 km, 47.2° (Epoch: 19 February)

Event Time Altitude Azimuth Distance (km) Brightness Sun altitude
Rises 12:36:41 0° 296° (WNW) 4,933 9.9 34.3°
Reaches altitude 10° 12:39:57 10° 300° (WNW) 3,947 9.5 34.3°
Maximum altitude 12:50:02 62° 21° (NNE) 1,843 8.1 34.2°
Drops below altitude 10° 12:59:55 10° 101° (ESE) 3,878 9.8 33.9°
Sets 13:03:05 0° 105° (ESE) 4,843 10.2 33.9°
